Location: Stuart
(27.1975°N, 80.2528°W)
Time: 08:34:18
(UTC-04:00)

N. Korean satellite - Pass Details

Date: 03 April 2020
Orbit: 455 x 504 km, 97.2° (Epoch: 01 June)

Event Time Altitude Azimuth Distance (km) Brightness Sun altitude
Rises 06:41:41 0° 17° (NNE) 2,474 10.5 -6.8°
Reaches altitude 10° 06:43:46 10° 22° (NNE) 1,595 9.7 -6.4°
Maximum altitude 06:47:06 51° 100° (E) 578 7.5 -5.6°
Drops below altitude 10° 06:50:25 10° 177° (S) 1,586 9.1 -4.9°
Sets 06:52:28 0° 182° (S) 2,459 10.0 -4.5°
